Hourly Data Report for July 16, 2021

DRYDEN REGIONAL
ONTARIO
Current Station Operator: NAVCAN

49°49'39.000" N
92°44'39.000" W
412.70 m
6032125
71527
YHD

Download Data

Hourly Data (July 2021)
Hourly Data Report for July 16, 2021
TIME
LST
Temp Definition
°C
Dew Point Definition
°C
Rel Hum Definition
%
Precip. Amount Definition
mm

Wind Dir Definition
10's deg

Wind Spd Definition
km/h
Visibility Definition
km
Stn Press Definition
kPa
Hmdx Definition


Wind Chill Definition


Weather Definition


00:00 19.8 12.2 61 0.0 17 15 16.1 96.58     LegendNANA
01:00 19.1 11.7 62 0.0 19 11 16.1 96.60     LegendNANA
02:00 18.3 12.5 69 0.0 18 13 16.1 96.58     LegendNANA
03:00 18.1 12.6 70 0.0 19 13 16.1 96.60     LegendNANA
04:00 18.3 12.8 70 0.0 19 15 16.1 96.62     LegendNANA
05:00 17.7 12.9 73 0.0 19 13 16.1 96.68     LegendNANA
06:00 18.6 13.5 72 0.0 19 11 14.5 96.70     LegendNANA
07:00 20.1 14.5 70 0.0 19 13 14.5 96.72     LegendNANA
08:00 22.6 15.4 63 0.0 20 11 14.5 96.72 27   LegendNANA
09:00 25.3 16.1 56 0.0 21 15 16.1 96.72 30   LegendNANA
10:00 27.4 15.0 46 0.0 25 24 16.1 96.72 31   LegendNANA
11:00 28.4 14.4 42 0.0 24 22 16.1 96.73 32   LegendNANA
12:00 29.0 13.2 37 0.0 24 22 16.1 96.71 32   LegendNANA
13:00 29.9 12.7 34 0.0 25 17 16.1 96.68 33   LegendNANA
14:00 30.4 12.0 32 0.0 23 21 16.1 96.66 33   LegendNANA
15:00 30.5 11.5 31 0.0 24 21 16.1 96.66 33   LegendNANA
16:00 30.4 11.1 30 0.0 23 18 16.1 96.63 32   LegendNANA
17:00 30.3 11.6 31 0.0 26 13 16.1 96.62 32   LegendNANA
18:00 29.7 10.7 30 0.0 25 13 16.1 96.63 31   LegendNANA
19:00 27.6 11.4 36 0.0 25 8 16.1 96.66 30   LegendNANA
20:00 25.5 11.5 41 0.0 25 9 16.1 96.68 28   LegendNANA
21:00 23.9 11.8 46 0.0 27 8 16.1 96.74 26   LegendNANA
22:00 23.5 12.3 49 0.0 25 8 16.1 96.81 26   LegendNANA
23:00 22.0 13.0 56 0.0 21 11 16.1 96.80 25   LegendNANA

Notes on Data Quality.

Legend

  • E = Estimated
  • M = Missing
  • NA = Not Available*
  • [empty] = Indicates an unobserved value
Date modified: